Flight Track Log - Related Links

Times and Time Zones

All times are in EDT time to prevent confusion due to time zone crossing. See the DAL2278 flight status page for this flight to view local times or setup timezone preferences in your user account.

Time Position Orientation Groundspeed Altitude Reporting Facility
EDT Latitude Longitude Course Direction KTS MPH feet Rate Location/Type
Sun 07:03:56 PM 40.8150 -112.0006 217° Southwest 171 197 5,300  Level Salt Lake Center
Sun 07:04:58 PM 40.8267 -112.0689 283° West 208 239 6,600 1,854 Climbing Salt Lake Center
Sun 07:05:59 PM 40.8194 -112.1708 265° West 277 319 9,100 2,459 Climbing Salt Lake Center
Sun 07:07:00 PM 40.7575 -112.2306 216° Southwest 302 348 11,600 2,732 Climbing Salt Lake Center
Sun 07:08:00 PM 40.4417 -112.3296 192° South  Level FlightAware Approximate
Sun 07:08:02 PM 40.6694 -112.2575 193° South 323 372 14,700  Level Salt Lake Center
Sun 07:09:00 PM 40.3296 -112.3538 217° Southwest  Level FlightAware Approximate
Sun 07:09:03 PM 40.5792 -112.2850 193° South 332 382 17,500  Level Salt Lake Center
Sun 07:10:04 PM 40.4639 -112.3211 193° South 356 410 20,700 2,585 Climbing Salt Lake Center
Sun 07:11:06 PM 40.3658 -112.3506 193° South 361 415 22,800 2,000 Climbing Salt Lake Center
Sun 07:12:07 PM 40.2711 -112.4050 204° Southwest 373 429 24,800 1,770 Climbing Salt Lake Center
Sun 07:13:08 PM 40.1769 -112.4722 209° Southwest 383 441 26,400 1,659 Climbing Salt Lake Center
Sun 07:14:10 PM 40.0792 -112.5403 208° Southwest 395 455 28,200 1,610 Climbing Salt Lake Center
Sun 07:15:11 PM 39.9808 -112.6092 208° Southwest 403 464 29,700 1,659 Climbing Salt Lake Center
Sun 07:16:13 PM 39.8839 -112.6781 209° Southwest 397 457 31,600 1,561 Climbing Salt Lake Center
Sun 07:17:14 PM 39.7858 -112.7433 207° Southwest 396 456 32,900 1,033 Climbing Salt Lake Center
Sun 07:18:15 PM 39.6758 -112.8169 207° Southwest 402 463 33,700 829 Climbing Salt Lake Center
Sun 07:19:17 PM 39.5631 -112.8581 196° South 419 482 34,600 878 Climbing Salt Lake Center
Sun 07:20:18 PM 39.4486 -112.8950 194° South 423 487 35,500 780 Climbing Salt Lake Center
Sun 07:21:20 PM 39.3353 -112.9319 194° South 422 486 36,200 732 Climbing Salt Lake Center
Sun 07:22:21 PM 39.2189 -112.9714 195° South 431 496 37,000 878 Climbing Salt Lake Center
Sun 07:23:23 PM 39.0808 -113.0150 194° South 426 490 38,000 484 Climbing Salt Lake Center
Sun 07:24:25 PM 38.9672 -113.0503 194° South 422 486 38,000  Level Salt Lake Center
Sun 07:25:26 PM 38.8536 -113.0883 195° South 423 487 38,000  Level Salt Lake Center
Sun 07:26:28 PM 38.7397 -113.1250 194° South 423 487 38,000  Level Salt Lake Center
Sun 07:27:29 PM 38.6256 -113.1586 193° South 423 487 38,000  Level Salt Lake Center
Sun 07:28:31 PM 38.5108 -113.1961 194° South 425 489 38,000  Level Salt Lake Center
Sun 07:29:32 PM 38.3958 -113.2328 194° South 426 490 38,000  Level Salt Lake Center
Sun 07:30:34 PM 38.2583 -113.2758 194° South 427 491 38,000  Level Salt Lake Center
Sun 07:31:35 PM 38.1431 -113.3117 194° South 428 493 38,000  Level Salt Lake Center
Sun 07:32:37 PM 38.0267 -113.3478 194° South 432 497 38,000  Level Salt Lake Center
Sun 07:33:39 PM 37.9125 -113.3875 195° South 431 496 38,000  Level Salt Lake Center
Sun 07:34:40 PM 37.8094 -113.4572 208° Southwest 426 490 38,000  Level Salt Lake Center
Sun 07:36:44 PM 37.5914 -113.6303 212° Southwest 424 488 38,000  Level Salt Lake Center
Sun 07:37:45 PM 37.4931 -113.7094 213° Southwest 423 487 38,000  Level Salt Lake Center
Sun 07:38:47 PM 37.3950 -113.7867 212° Southwest 419 482 38,000  Level Salt Lake Center
Sun 07:39:49 PM 37.2961 -113.8636 212° Southwest 420 483 38,000  Level Salt Lake Center
Sun 07:40:50 PM 37.1964 -113.9417 212° Southwest 423 487 38,000  Level Salt Lake Center
Sun 07:41:52 PM 37.0981 -114.0194 212° Southwest 420 483 38,000  Level Salt Lake Center
Sun 07:42:12 PM 37.0639 -114.0436 209° Southwest 421 484 38,000  Level Los Angeles Center
Sun 07:43:14 PM 36.9444 -114.1350 211° Southwest 420 483 38,000  Level Los Angeles Center
Sun 07:44:16 PM 36.8464 -114.2125 212° Southwest 416 479 38,000  Level Los Angeles Center
Sun 07:45:18 PM 36.7478 -114.2881 212° Southwest 414 476 38,000  Level Los Angeles Center
Sun 07:46:20 PM 36.6483 -114.3647 212° Southwest 417 480 38,000  Level Los Angeles Center
Sun 07:47:22 PM 36.5486 -114.4414 212° Southwest 419 482 38,000  Level Los Angeles Center
Sun 07:48:24 PM 36.4489 -114.5175 212° Southwest 419 482 38,000  Level Los Angeles Center
Sun 07:49:26 PM 36.3483 -114.5947 212° Southwest 420 483 38,000  Level Los Angeles Center
Sun 07:50:28 PM 36.2433 -114.6644 208° Southwest 423 487 38,000  Level Los Angeles Center
Sun 07:51:30 PM 36.1131 -114.7319 203° Southwest 421 484 38,000  Level Los Angeles Center
Sun 07:52:32 PM 36.0061 -114.7903 204° Southwest 418 481 38,000  Level Los Angeles Center
Sun 07:53:34 PM 35.8986 -114.8469 203° Southwest 417 480 38,000  Level Los Angeles Center
Sun 07:54:36 PM 35.7889 -114.9044 203° Southwest 421 484 38,000  Level Los Angeles Center
Sun 07:55:38 PM 35.6783 -114.9639 204° Southwest 429 494 38,000  Level Los Angeles Center
Sun 07:56:40 PM 35.5683 -115.0225 203° Southwest 430 495 38,000  Level Los Angeles Center
Sun 07:57:42 PM 35.4589 -115.0794 203° Southwest 427 491 38,000 -176 Level Los Angeles Center
Sun 07:58:56 PM 35.3256 -115.1456 202° Southwest 429 494 37,600 -706 Descending Los Angeles Center
Sun 07:59:58 PM 35.1911 -115.2050 200° South 428 493 36,400 -1,065 Descending Los Angeles Center
Sun 08:01:00 PM 35.0761 -115.2564 200° South 424 488 35,400 -968 Descending Los Angeles Center
Sun 08:02:02 PM 34.9658 -115.3056 200° South 422 486 34,400 -968 Descending Los Angeles Center
Sun 08:03:04 PM 34.8603 -115.3539 201° Southwest 421 484 33,400 -919 Descending Los Angeles Center
Sun 08:04:06 PM 34.7481 -115.4031 200° South 426 490 32,500 -960 Descending Los Angeles Center
Sun 08:05:09 PM 34.6292 -115.4542 199° South 429 494 31,400 -1,008 Descending Los Angeles Center
Sun 08:06:11 PM 34.5167 -115.5050 200° South 431 496 30,400 -677 Descending Los Angeles Center
Sun 08:07:13 PM 34.3800 -115.5653 200° South 434 499 30,000 -194 Descending Los Angeles Center
Sun 08:08:15 PM 34.2658 -115.6139 199° South 436 502 30,000 -48 Level Los Angeles Center
Sun 08:09:17 PM 34.1542 -115.6639 200° South 430 495 29,900  Descending Los Angeles Center
Sun 08:10:19 PM 34.0419 -115.7139 200° South 430 495 30,000 48 Climbing Los Angeles Center
Sun 08:11:21 PM 33.9292 -115.7633 200° South 431 496 30,000  Level Los Angeles Center
Sun 08:12:23 PM 33.8186 -115.8131 200° South 427 491 30,000 -242 Level Los Angeles Center
Sun 08:13:25 PM 33.6842 -115.8697 199° South 425 489 29,500 -726 Descending Los Angeles Center
Sun 08:14:27 PM 33.5706 -115.9200 200° South 431 496 28,500 -871 Descending Los Angeles Center
Sun 08:15:29 PM 33.4914 -115.9861 215° Southwest 431 496 27,700 -2,468 Descending Los Angeles Center
Sun 08:16:31 PM 33.3842 -116.0928 220° Southwest 420 483 23,400 -3,792 Descending Los Angeles Center
Sun 08:17:34 PM 33.2950 -116.1753 218° Southwest 410 472 19,800 -2,928 Descending Los Angeles Center
Sun 08:18:36 PM 33.2122 -116.2528 218° Southwest 388 447 17,300 -2,710 Descending Los Angeles Center
Sun 08:19:38 PM 33.1161 -116.3411 218° Southwest 369 425 14,200 -2,371 Descending Los Angeles Center
Sun 08:20:40 PM 33.0389 -116.4119 218° Southwest 358 412 12,400 -1,016 Descending Los Angeles Center
Sun 08:21:42 PM 32.9769 -116.4808 223° Southwest 334 384 12,100 -1,210 Descending Los Angeles Center
Sun 08:22:44 PM 32.9328 -116.5511 233° Southwest 280 322 9,900 -1,548 Descending Los Angeles Center
Sun 08:23:46 PM 32.8783 -116.6314 231° Southwest 266 306 8,900 -1,258 Descending Los Angeles Center
Sun 08:24:48 PM 32.8367 -116.6925 231° Southwest 248 285 7,300 -1,548 Descending Los Angeles Center
Sun 08:25:50 PM 32.7964 -116.7522 231° Southwest 237 273 5,700 -1,161 Descending Los Angeles Center
Sun 08:26:52 PM 32.7572 -116.8097 231° Southwest 230 265 4,900 -387 Descending Los Angeles Center
Sun 08:27:54 PM 32.7231 -116.8586 230° Southwest 205 236 4,900 -435 Level Los Angeles Center
Sun 08:28:56 PM 32.6839 -116.9169 231° Southwest 192 221 4,000 -679 Descending Los Angeles Center
Sun 08:29:40 PM 32.6833 -116.9500 269° West 193 222 3,700 -750 Descending Southern California TRACON
Sun 08:30:40 PM 32.6833 -117.0167 270° West 187 215 2,700 -942 Descending Southern California TRACON
Sun 08:31:41 PM 32.7000 -117.0667 292° West 168 193 1,800 -744 Descending Southern California TRACON
Sun 08:32:41 PM 32.7167 -117.1167 292° West 132 152 1,200 -650 Descending Southern California TRACON
Sun 08:33:41 PM 32.7333 -117.1500 301° West 132 152 500 -635 Descending Southern California TRACON
Sun 08:34:06 PM 32.7275 -117.1653 246° West 132 152 300 -480 Descending Los Angeles Center

Login

Don't have an account? Register now (free) for customized features, flight alerts, and more!